Regional Weather Roundup
Issued by NWS Upton, NY

Home | Current Version | Previous Version | Text Only | Print | Product List | Glossary On
Versions: 1 2 3 4 5 6 7 8 9 10 11 12 13 14 15 16 17 18 19 20 21 22 23 24 25 26 27
000
ASUS41 KOKX 300704
RWROKX

REGIONAL WEATHER ROUNDUP
NATIONAL WEATHER SERVICE NEW YORK NY
300 AM EDT MON MAY 30 2016

NOTE: "FAIR" INDICATES FEW OR NO CLOUDS BELOW 12,000 FEET WITH NO
SIGNIFICANT WEATHER AND/OR OBSTRUCTIONS TO VISIBILITY.

NYZ071-072-176-178-NJZ106-104-300800-
NEW YORK CITY METRO AREA


CITY           SKY/WX    TMP DP  RH WIND       PRES   REMARKS
CENTRAL PARK   RAIN      70  69  97 CALM      30.04F FOG
LAGUARDIA APRT RAIN      70  70 100 S5        30.00F
KENNEDY INTL   HVY RAIN  65  63  93 S10       30.02F VSB 1/2
NEWARK/LIBERTY HVY RAIN  70  69  97 CALM      30.00F FOG
BRNX BOT. GARD   N/A     68  66  94 SE3       30.01F
TETERBORO      RAIN      71  68  90 CALM      29.99F FOG
$$

NYZ177-179-078>081-300800-
LONG ISLAND NEW YORK

CITY           SKY/WX    TMP DP  RH WIND       PRES   REMARKS
FARMINGDALE    CLOUDY    67  66  97 SW9       30.02F FOG
ISLIP          CLOUDY    68  66  93 S6        30.02F
SHIRLEY        LGT RAIN  66  65  96 S6        30.03F
RIVERHEAD        N/A     66  66 100 CALM      30.02F
WESTHAMPTON    LGT RAIN  65  65 100 S3        30.04F VSB 3/4
EAST HAMPTON   FOG       64  64  99 CALM      30.04F VSB 1/2
MONTAUK POINT    N/A     64  64 100 VRB3      30.05F
$$

NYZ052-065-067-300800-
HUDSON VALLEY

CITY           SKY/WX    TMP DP  RH WIND       PRES   REMARKS
WHITE PLAINS   RAIN      68  67  96 CALM      30.01F FOG
NEWBURGH       LGT RAIN  68  66  94 W6        30.03F
MONTGOMERY     LGT RAIN  67  65  93 SW3       30.02S
POUGHKEEPSIE   LGT RAIN  72  68  87 S3        30.00F
ALBANY         LGT RAIN  69  64  84 SW9       29.99R
$$

NJZ001-105-106-008-010-013-015-019>022-104-300800-
NEW JERSEY

CITY           SKY/WX    TMP DP  RH WIND       PRES   REMARKS
NEWARK/LIBERTY HVY RAIN  70  69  97 CALM      30.00F FOG
TETERBORO      RAIN      71  68  90 CALM      29.99F FOG
CALDWELL       RAIN      68  65  90 CALM      30.01F FOG
MORRISTOWN     RAIN      68  66  94 CALM      30.02F
SOMERVILLE     CLOUDY    66  65  96 CALM      30.00F
SUSSEX         LGT RAIN  66  65  96 CALM      30.02F
ANDOVER          N/A     66  64  93 CALM      30.02F
TRENTON        CLOUDY    68  66  93 CALM      30.00F
MILLVILLE      CLOUDY    71  69  93 CALM      30.01F
ATLANTIC CITY  CLOUDY    72  70  93 S12       30.01F
WRIGHTSTOWN    CLOUDY    71  71  99 S6        29.98F
TOMS RIVER     CLOUDY   N/A N/A N/A S8        30.01F
BELMAR         LGT RAIN  71  70  96 S6        30.02F
$$

PAZ047>061-062-071-300800-
EASTERN PENNSYLVANIA

CITY           SKY/WX    TMP DP  RH WIND       PRES   REMARKS
PHILADELPHIA   LGT RAIN  70  68  93 CALM      30.01S FOG
ALLENTOWN      LGT RAIN  70  67  90 SW5       30.01F
SCRANTON       RAIN      66  64  93 SW6       30.03F FOG
$$

CTZ002-004>006-009-010-012-RIZ004-006-007-MAZ004-011-015-300800-
SOUTHERN NEW ENGLAND
 IN CT

CITY           SKY/WX    TMP DP  RH WIND       PRES   REMARKS
BRADLEY INTL   RAIN      63  62  97 N5        30.02F FOG
HARTFORD       CLOUDY    71  68  90 S6        30.02F
DANBURY        RAIN      68  64  87 W3        30.04F FOG
WTRBRY/OXFORD    N/A     66  63  88 CALM      30.05F VSB 3/4
BRIDGEPORT     LGT RAIN  66  64  93 E8        30.02F VSB 1/2
MERIDEN        LGT RAIN  68  66  93 S3        30.03F
NEW HAVEN      FOG       65  64  97 E6        30.02F VSB 3/4
CHESTER        LGT RAIN  64  64 100 CALM      30.04F VSB<1/4
GROTON         LGT RAIN  62  62 100 VRB6      30.03F FOG
WILLIMANTIC    CLOUDY    65  62  90 NE6       30.05F FOG

 IN RI

CITY           SKY/WX    TMP DP  RH WIND       PRES   REMARKS
PROVIDENCE     CLOUDY    57  55  93 NE6       30.07F
BLOCK ISLAND   FOG       59  59 100 N3        30.06F VSB 1/4
WESTERLY       CLOUDY    62  59  90 E6        30.05F FOG

 IN MA

CITY           SKY/WX    TMP DP  RH WIND       PRES   REMARKS
BOSTON         LGT RAIN  53  52  96 E3        30.09F FOG
WORCESTER      FOG       53  52  96 E5        30.07F VSB 1/4
WESTFIELD      LGT RAIN  62  59  90 N6        30.04F
PROVINCETOWN   LGT RAIN  54  53  97 NE3       30.09F FOG
NANTUCKET      LGT RAIN  61  60  97 S5        30.07F VSB 1/4
$$

ANZ330-335-338-340-345-350-353-355-300800-
COASTAL MARINE OBSERVATIONS


STATION/POSITION TIME  SKY/WX   TEMP    WIND        PRES    VSBY  WAVE
                                AIR SEA DIR/SP/G                  HT/PER
                 (UTC)          (F)     (DEG/KT/KT) (MB)    (MI)  (FT/S)
NY HARB ENTRANCE 0550            61 58  180/ 10/ 12 1016.5          3/ 7
20S FIRE ISLAND  0550            63 62  190/ 12/ 12 1016.7          3/ 6
GREAT SOUTH BAY  0600            66 71  210/ 12/ 16   N/A
23 SSW MONTAUK P 0550            62 59  200/  8/  8 1017.4          3/ 7
15 E BARNEGAT LI 0622               61                N/A           3/ 8
HUDSON CANYON    0550            63 60              1018.1          2/ 8
KINGS POINT      0600            65 60              1016.5
EXECUTION ROCKS  NOT AVBL
CENTRAL LI SOUND 0600            65     100/  4/  4   N/A           1
EASTERN LI SOUND 0600            58 55   70/  6/  8   N/A
ROBBINS REEF     0600            66     170/  7/  8 1015.9
$$


>>>>>>>>>>>>>>>>>>>>>>>>>>>> KEY <<<<<<<<<<<<<<<<<<<<<<<<<<<
>                                                          <
>     SKY/WX - SKY CONDITION/PRESENT WEATHER               <
>     TMP    - TEMPERATURE IN FAHRENHEIT                   <
>     DP     - DEWPOINT IN FAHRENHEIT                      <
>     RH     - RELATIVE HUMIDITY IN PERCENT                <
>     WIND   - DIRECTION AND SPEED IN MPH                  <
>     PRES   - MEAN SEA LEVEL PRESSURE IN INCHES OF HG     <
>     WCI    - WIND CHILL INDEX                            <
>     VSB    - VISIBILITY IN MILES                         <
>     HX     - HEAT INDEX                                  <
>     TC     - TEMPERATURE IN CELSIUS                      <
>     VRB    - VARIABLE WIND DIRECTION                     <
>                                                          <
>>>>>>>>>>>>>>>>>>>>>>>>>>>> KEY <<<<<<<<<<<<<<<<<<<<<<<<<<<






USA.gov is the U.S. government's official web portal to all federal, state and local government web resources and services.